Date String (YYYY-MM-DD hh:mm:ss) UTC,Instrument flags,Ambient pressure (hPa),Sample flow (lpm),Bypass flow (lpm),Sample temperature (°C),Ambient temperature (°C),ASC tube jacket temperature (°C),LED temperature (°C),Box temperature (°C),Sample RH (%),Span deviation,Mass concentration (μg/m³),Mass concentration (μg/m³),Mass concentration (μg/m³)
DateTimeUTC,F1_M11,P_M11,Q1_M11,Q2_M11,T1_M11,T2_M11,T3_M11,T4_M11,T5_M11,U1_M11,ZSPAN_M11,X0_M11,X2_M11,X1_M11
2022-02-24 16:00:00,,0821.7,4.99,0.00,22.8,22.2,00.0,31.8,24.6,04.2,-000.5,0010.02,0005.09,0004.38
2022-02-24 16:01:00,,0821.8,4.99,0.00,22.8,22.1,00.0,31.8,24.6,04.2,-000.6,0010.13,0005.14,0004.40
2022-02-24 16:02:00,,0821.9,5.00,0.00,22.8,22.0,00.0,31.8,24.5,04.2,0000.0,0010.55,0005.21,0004.42
2022-02-24 16:03:00,,0821.8,5.01,0.00,22.8,22.0,00.0,31.8,24.5,04.2,0000.0,0010.74,0005.23,0004.43
2022-02-24 16:04:00,,0821.7,5.00,0.00,22.7,21.9,00.0,31.7,24.5,04.2,0000.0,0010.66,0005.23,0004.44
2022-02-24 16:05:00,,0821.6,5.00,0.00,22.7,22.1,00.0,31.7,24.5,04.2,0000.0,0010.76,0005.24,0004.45
2022-02-24 16:06:00,,0821.8,5.01,0.00,22.8,23.0,00.0,31.8,24.7,04.2,0000.0,0010.50,0005.26,0004.46
2022-02-24 16:07:00,,0821.8,5.00,0.00,23.0,23.8,00.0,31.8,24.9,04.2,0000.0,0010.40,0005.23,0004.45
2022-02-24 16:08:00,,0821.8,4.99,0.00,23.0,23.6,00.0,31.8,25.0,04.2,0000.0,0010.33,0005.21,0004.45
2022-02-24 16:09:00,,0822.0,4.99,0.00,23.1,23.4,00.0,31.9,25.0,04.2,0000.0,0010.33,0005.20,0004.45
2022-02-24 16:10:00,,0821.9,5.01,0.00,23.1,23.2,00.0,31.9,24.9,04.2,0000.0,0010.12,0005.19,0004.44
2022-02-24 16:11:00,,0822.0,5.00,0.00,23.0,22.9,00.0,31.9,24.9,04.2,0000.0,0009.97,0005.19,0004.44
2022-02-24 16:12:00,,0822.0,5.00,0.00,23.0,22.7,00.0,31.9,24.8,04.2,0000.0,0010.48,0005.13,0004.43
2022-02-24 16:13:00,,0822.0,5.00,0.00,23.0,22.6,00.0,31.9,24.8,04.2,0000.0,0010.32,0005.09,0004.43
2022-02-24 16:14:00,,0822.0,5.00,0.00,23.0,22.5,00.0,31.9,24.8,04.1,-000.2,0010.11,0005.08,0004.44
2022-02-24 16:15:00,,0822.0,5.00,0.00,23.0,22.4,00.0,31.9,24.8,04.1,-000.8,0010.30,0005.11,0004.46
2022-02-24 16:16:00,,0822.0,4.99,0.00,23.0,22.3,00.0,31.9,24.7,04.1,-001.1,0010.16,0005.09,0004.46
2022-02-24 16:17:00,,0821.8,5.00,0.00,22.9,22.2,00.0,31.9,24.7,04.1,-001.3,0009.92,0005.10,0004.47
2022-02-24 16:18:00,,0821.8,5.00,0.00,22.9,22.2,00.0,31.9,24.7,04.2,-001.3,0010.01,0005.17,0004.49
2022-02-24 16:19:00,,0821.8,5.00,0.00,22.9,22.1,00.0,31.9,24.6,04.2,-001.2,0010.10,0005.24,0004.52
2022-02-24 16:20:00,,0821.7,5.00,0.00,22.9,22.1,00.0,31.8,24.6,04.2,-001.2,0010.18,0005.29,0004.55
2022-02-24 16:21:00,,0821.6,5.00,0.00,22.9,22.0,00.0,31.8,24.6,04.2,-000.5,0010.88,0005.33,0004.59
2022-02-24 16:22:00,,0821.7,5.02,0.00,22.8,22.0,00.0,31.8,24.6,04.2,0000.2,0011.02,0005.40,0004.62
2022-02-24 16:23:00,,0821.8,5.00,0.00,22.8,22.1,00.0,31.8,24.6,04.2,0000.7,0010.43,0005.43,0004.65
2022-02-24 16:24:00,,0821.9,5.00,0.00,22.9,23.0,00.0,31.8,24.8,04.2,0000.5,0010.32,0005.47,0004.68
2022-02-24 16:25:00,,0821.8,5.00,0.00,23.0,23.8,00.0,31.9,25.0,04.2,-000.2,0010.98,0005.56,0004.70
2022-02-24 16:26:00,,0821.8,5.00,0.00,23.1,23.7,00.0,31.9,25.1,04.1,0000.1,0012.31,0005.58,0004.72
2022-02-24 16:27:00,,0821.7,4.99,0.00,23.2,23.5,00.0,31.9,25.1,04.2,0000.9,0012.16,0005.62,0004.75
2022-02-24 16:28:00,,0821.8,5.00,0.00,23.2,23.3,00.0,31.9,25.1,04.1,0001.0,0012.02,0005.60,0004.77
2022-02-24 16:29:00,,0821.9,5.00,0.00,23.2,23.0,00.0,32.0,25.0,04.2,0000.8,0011.87,0005.57,0004.77
2022-02-24 16:30:00,,0821.8,5.00,0.00,23.2,22.9,00.0,32.0,25.0,04.2,0000.3,0011.74,0005.54,0004.77
2022-02-24 16:31:00,,0821.8,5.00,0.00,23.1,22.7,00.0,32.0,25.0,04.2,0000.9,0011.58,0005.49,0004.78
2022-02-24 16:32:00,,0821.8,5.00,0.00,23.1,22.6,00.0,32.0,24.9,04.2,-000.1,0011.02,0005.48,0004.78
2022-02-24 16:33:00,,0821.8,5.00,0.00,23.1,22.5,00.0,32.0,24.9,04.2,0000.7,0010.77,0005.46,0004.78
2022-02-24 16:34:00,,0821.8,4.99,0.00,23.1,22.4,00.0,32.0,24.9,04.2,0000.8,0011.10,0005.45,0004.77
2022-02-24 16:35:00,,0821.8,5.00,0.00,23.1,22.4,00.0,32.0,24.9,04.2,0000.3,0011.02,0005.45,0004.76
2022-02-24 16:36:00,,0821.8,4.99,0.00,23.1,22.3,00.0,32.0,24.9,04.2,0000.1,0010.58,0005.40,0004.76
2022-02-24 16:37:00,,0821.8,4.99,0.00,23.0,22.3,00.0,32.0,24.9,04.2,-000.0,0009.64,0005.36,0004.75
2022-02-24 16:38:00,,0821.7,5.01,0.00,23.0,22.2,00.0,32.0,24.8,04.2,-000.3,0009.91,0005.37,0004.75
2022-02-24 16:39:00,,0821.7,5.02,0.00,23.0,22.2,00.0,31.9,24.8,04.2,-000.7,0010.07,0005.43,0004.77
2022-02-24 16:40:00,,0821.7,5.00,0.00,23.0,22.1,00.0,31.9,24.8,04.2,-000.6,0010.29,0005.48,0004.80
2022-02-24 16:41:00,,0821.6,5.00,0.00,23.0,22.1,00.0,31.9,24.8,04.2,-000.2,0010.28,0005.49,0004.83
2022-02-24 16:42:00,,0821.7,4.99,0.00,23.0,22.1,00.0,31.9,24.7,04.2,0000.3,0010.52,0005.51,0004.83
2022-02-24 16:43:00,,0821.7,5.00,0.00,22.9,22.0,00.0,31.9,24.6,04.2,0000.6,0010.88,0005.55,0004.85
2022-02-24 16:44:00,,0821.7,5.00,0.00,22.9,22.0,00.0,31.9,24.5,04.2,0000.4,0011.16,0005.53,0004.85
2022-02-24 16:45:00,,0821.7,5.00,0.00,22.8,21.9,00.0,31.9,24.5,04.2,0000.2,0011.07,0005.57,0004.87
2022-02-24 16:46:00,,0821.8,5.01,0.00,22.8,21.9,00.0,31.8,24.5,04.2,0000.2,0010.98,0005.61,0004.91
2022-02-24 16:47:00,,0821.8,5.00,0.00,22.8,22.0,00.0,31.8,24.5,04.2,0000.3,0011.06,0005.65,0004.93
2022-02-24 16:48:00,,0821.7,5.00,0.00,22.9,22.9,00.0,31.8,24.7,04.2,0000.2,0010.95,0005.68,0004.94
2022-02-24 16:49:00,,0821.7,5.01,0.00,23.0,23.9,00.0,31.9,25.0,04.2,0000.0,0010.06,0005.64,0004.94
2022-02-24 16:50:00,,0821.7,5.00,0.00,23.1,23.8,00.0,31.9,25.0,04.2,0000.0,0010.14,0005.61,0004.93
2022-02-24 16:51:00,,0821.7,4.99,0.00,23.1,23.4,00.0,31.9,24.9,04.2,0000.0,0010.05,0005.55,0004.90
2022-02-24 16:52:00,,0821.7,5.01,0.00,23.0,23.0,00.0,31.9,24.8,04.2,0000.6,0009.91,0005.49,0004.88
2022-02-24 16:53:00,,0821.5,4.99,0.00,22.9,22.6,00.0,31.9,24.6,04.2,0000.8,0010.00,0005.47,0004.88
2022-02-24 16:54:00,,0821.6,5.00,0.00,22.8,22.4,00.0,31.9,24.4,04.2,0000.8,0010.28,0005.48,0004.87
2022-02-24 16:55:00,,0821.7,5.01,0.00,22.8,22.1,00.0,31.9,24.3,04.3,0000.0,0010.06,0005.48,0004.87
2022-02-24 16:56:00,,0821.7,4.98,0.00,22.7,22.0,00.0,31.8,24.4,04.3,0000.0,0010.20,0005.45,0004.88
2022-02-24 16:57:00,,0821.7,4.99,0.00,22.7,21.9,00.0,31.8,24.4,04.3,0000.0,0010.09,0005.44,0004.89
2022-02-24 16:58:00,,0821.8,5.01,0.00,22.7,21.9,00.0,31.8,24.4,04.3,0000.0,0010.10,0005.43,0004.91
2022-02-24 16:59:00,,0821.8,5.00,0.00,22.7,21.9,00.0,31.8,24.3,04.2,0001.9,0010.41,0005.41,0004.93
